| time (UTC) | temp C | wind direction | speed KPH | gust KPH | rain 1hr cm | rain 24hr cm | rain mn cm | humidity % | barometer mb |
| 20260504201533 | 18 | 208 | 0.0 | 17.7 | 0.00 | 0.00 | 0.00 | 40 | 1009.6 |
| 20260504200032 | 19 | 219 | 3.2 | 19.3 | 0.00 | 0.00 | 0.00 | 39 | 1010.0 |
| 20260504194531 | 19 | 155 | 6.4 | 22.5 | 0.00 | 0.00 | 0.00 | 39 | 1010.0 |
| 20260504193030 | 18 | 144 | 3.2 | 22.5 | 0.00 | 0.00 | 0.00 | 39 | 1010.1 |
| 20260504191528 | 19 | 146 | 4.8 | 19.3 | 0.00 | 0.00 | 0.00 | 39 | 1010.3 |
| 20260504190027 | 19 | 355 | 8.0 | 33.8 | 0.00 | 0.00 | 0.00 | 41 | 1010.4 |
| 20260504184525 | 20 | 217 | 3.2 | 20.9 | 0.00 | 0.00 | 0.00 | 39 | 1010.5 |
| 20260504183024 | 19 | 200 | 6.4 | 25.7 | 0.00 | 0.00 | 0.00 | 40 | 1010.5 |
| 20260504181527 | 19 | 277 | 6.4 | 24.1 | 0.00 | 0.00 | 0.00 | 40 | 1010.8 |
| 20260504180020 | 18 | 238 | 8.0 | 22.5 | 0.00 | 0.00 | 0.00 | 43 | 1010.7 |
| 20260504174519 | 18 | 169 | 6.4 | 22.5 | 0.00 | 0.00 | 0.00 | 41 | 1010.8 |
| 20260504173018 | 18 | 153 | 11.3 | 20.9 | 0.00 | 0.00 | 0.00 | 42 | 1011.0 |
| 20260504171516 | 18 | 296 | 9.7 | 19.3 | 0.00 | 0.00 | 0.00 | 42 | 1011.2 |
| 20260504081556 | 4 | 138 | 0.0 | 4.8 | 0.00 | 0.00 | 0.00 | 79 | 1014.2 |
| 20260504044535 | 5 | 338 | 0.0 | 3.2 | 0.00 | 0.00 | 0.00 | 74 | 1014.2 |
| 20260504043030 | 5 | 336 | 0.0 | 0.0 | 0.00 | 0.00 | 0.00 | 72 | 1014.3 |
| 20260504041527 | 5 | 336 | 0.0 | 0.0 | 0.00 | 0.00 | 0.00 | 73 | 1014.3 |
| 20260504040024 | 5 | 336 | 0.0 | 0.0 | 0.00 | 0.00 | 0.00 | 71 | 1014.4 |
| 20260504034524 | 6 | 336 | 0.0 | 0.0 | 0.00 | 0.00 | 0.00 | 71 | 1014.4 |
| 20260504033024 | 6 | 336 | 0.0 | 0.0 | 0.00 | 0.00 | 0.00 | 71 | 1014.4 |
| 20260504031525 | 5 | 336 | 0.0 | 0.0 | 0.00 | 0.00 | 0.00 | 72 | 1014.4 |
| 20260504030022 | 5 | 336 | 0.0 | 0.0 | 0.00 | 0.00 | 0.00 | 72 | 1014.4 |
| 20260504024522 | 5 | 336 | 0.0 | 0.0 | 0.00 | 0.00 | 0.00 | 71 | 1014.5 |
| 20260504023022 | 5 | 336 | 0.0 | 0.0 | 0.00 | 0.00 | 0.00 | 67 | 1014.6 |
| 20260504021522 | 6 | 336 | 0.0 | 0.0 | 0.00 | 0.00 | 0.00 | 65 | 1014.6 |
| 20260504020020 | 6 | 336 | 0.0 | 0.0 | 0.00 | 0.00 | 0.00 | 64 | 1014.5 |
| 20260504014520 | 7 | 336 | 0.0 | 1.6 | 0.00 | 0.00 | 0.00 | 63 | 1014.4 |
| 20260504013026 | 6 | 336 | 0.0 | 3.2 | 0.00 | 0.00 | 0.00 | 66 | 1014.1 |
| 20260504011520 | 7 | 336 | 0.0 | 0.0 | 0.00 | 0.00 | 0.00 | 64 | 1014.1 |
| 20260504010018 | 7 | 336 | 0.0 | 3.2 | 0.00 | 0.00 | 0.00 | 63 | 1013.9 |
| 20260504004518 | 7 | 336 | 0.0 | 0.0 | 0.00 | 0.00 | 0.00 | 68 | 1013.8 |
| 20260504003017 | 7 | 336 | 0.0 | 1.6 | 0.00 | 0.00 | 0.00 | 65 | 1013.7 |
| 20260504001517 | 7 | 336 | 0.0 | 0.0 | 0.00 | 0.00 | 0.00 | 61 | 1013.5 |
| 20260504000045 | 8 | 336 | 0.0 | 0.0 | 0.00 | 0.00 | 0.00 | 60 | 1013.4 |
| 20260503234516 | 8 | 336 | 0.0 | 0.0 | 0.00 | 0.00 | 0.00 | 58 | 1013.5 |
| 20260503233016 | 9 | 336 | 0.0 | 0.0 | 0.00 | 0.00 | 0.00 | 54 | 1013.4 |
| 20260503231515 | 9 | 336 | 0.0 | 8.0 | 0.00 | 0.00 | 0.00 | 52 | 1013.4 |
| 20260503230013 | 9 | 334 | 3.2 | 8.0 | 0.00 | 0.00 | 0.00 | 53 | 1013.4 |
| 20260503224514 | 10 | 355 | 3.2 | 14.5 | 0.00 | 0.00 | 0.00 | 52 | 1013.4 |
| 20260503223015 | 10 | 329 | 6.4 | 17.7 | 0.00 | 0.00 | 0.00 | 53 | 1013.6 |
| 20260503221513 | 10 | 342 | 4.8 | 27.4 | 0.00 | 0.00 | 0.00 | 52 | 1013.6 |
| 20260503220012 | 10 | 346 | 9.7 | 22.5 | 0.00 | 0.00 | 0.00 | 51 | 1013.6 |
| 20260503214512 | 10 | 314 | 8.0 | 22.5 | 0.00 | 0.00 | 0.00 | 50 | 1013.7 |
| 20260503213011 | 10 | 333 | 3.2 | 19.3 | 0.00 | 0.00 | 0.00 | 48 | 1013.5 |
| 20260503211514 | 10 | 327 | 6.4 | 12.9 | 0.00 | 0.00 | 0.00 | 46 | 1013.3 |
| 20260503210011 | 10 | 304 | 6.4 | 20.9 | 0.00 | 0.00 | 0.00 | 44 | 1013.1 |
| 20260503204509 | 11 | 315 | 9.7 | 20.9 | 0.00 | 0.00 | 0.00 | 46 | 1013.2 |
| 20260503203018 | 10 | 342 | 3.2 | 16.1 | 0.00 | 0.00 | 0.00 | 44 | 1013.2 |